Wind_Speed
5 6 7 7 7 6 6 6 4 2 2 1 2 6 7 7 9 9 10 7 11 10 13 13 11 12 8 10 15 10 14 10 21 19 15 21 18 10 9 10 10 7 12 18 22
4 4 5 6 6 5 5 5 4 3 1 1 4 6 8 6 6 7 8 11 12 14 14 14 13 6 10 7 4 7 8 16 16 17 21 13 8 24 20 20 20 13 15 19 18
4 4 3 4 4 4 4 5 4 3 3 3 6 8 7 4 2 2 8 14 14 16 15 19 4 3 8 6 6 3 9 14 14 15 17 11 19 22 18 17 17 14 19 21 17
3 3 3 3 3 3 3 4 4 4 4 5 8 11 8 3 3 6 4 13 16 19 16 13 10 12 10 13 6 11 16 15 14 11 10 19 21 16 11 11 10 15 18 18 18
3 3 3 3 2 3 2 3 5 5 5 7 12 12 8 4 6 9 4 14 21 16 11 11 7 13 8 1 9 16 13 16 18 18 13 17 7 21 16 13 9 15 16 15 13
3 2 2 2 2 2 2 3 5 5 6 9 14 12 4 2 6 7 6 18 21 14 9 3 5 9 4 8 7 8 18 15 11 13 16 17 15 15 14 12 10 16 14 11 8
4 2 2 2 1 1 2 3 5 6 7 9 14 13 5 2 3 5 10 18 20 17 4 15 13 11 9 7 3 11 12 11 9 16 7 12 12 13 16 14 14 17 14 8 12
4 3 2 1 1 1 1 3 5 6 7 9 14 16 1 4 1 9 11 14 12 14 17 10 4 2 8 10 3 7 17 16 10 12 18 9 19 15 15 15 17 17 16 17 12
5 3 2 1 2 2 3 3 4 5 7 10 14 17 1 6 1 8 14 14 14 11 11 8 5 4 3 6 6 2 13 16 16 17 16 11 18 16 16 12 17 16 17 19 18
6 3 1 0 2 3 7 6 6 3 6 10 10 9 9 5 7 6 9 9 9 9 7 3 9 11 12 11 15 7 21 16 17 15 14 18 21 18 15 16 16 18 15 18 16
6 4 2 1 2 6 11 12 7 3 4 6 9 3 10 4 5 9 7 7 8 11 11 4 14 14 11 5 4 17 9 14 19 20 15 17 20 15 16 19 18 16 11 18 13
6 5 3 2 3 7 11 7 4 1 7 15 9 9 7 7 9 9 7 12 10 10 10 12 17 12 7 6 4 14 12 9 6 14 10 23 19 22 22 21 21 18 13 16 16
5 3 3 3 4 6 9 6 3 8 8 15 13 14 11 11 11 8 14 15 14 12 8 15 17 11 7 11 10 18 18 17 12 25 13 26 14 20 23 26 24 18 13 19 14
6 4 3 4 5 3 3 2 2 2 8 6 11 11 15 16 11 17 16 13 15 17 16 19 9 5 8 10 14 20 14 18 20 25 21 24 12 23 19 25 29 23 21 18 16
6 5 4 5 7 11 10 8 4 1 4 5 6 4 8 20 7 2 17 16 15 16 16 17 15 15 10 7 12 9 7 17 25 22 18 22 8 15 25 33 32 26 24 21 19
7 5 4 5 9 10 3 9 8 0 6 8 12 11 10 13 12 5 12 15 15 17 17 20 21 19 12 12 10 9 8 8 12 12 11 28 24 23 20 36 34 29 27 21 23
7 6 5 6 9 9 9 13 4 5 4 9 11 9 10 14 12 11 13 12 13 14 18 19 21 16 18 17 20 8 10 13 8 10 12 3 11 4 15 30 33 32 31 25 28
6 6 5 6 5 6 14 13 5 6 8 4 7 8 11 9 14 16 16 13 12 16 22 22 22 17 20 26 17 18 14 15 4 3 14 20 15 8 15 19 36 31 32 22 28
6 6 4 5 5 8 17 11 7 2 11 6 2 5 11 9 12 18 18 23 13 19 18 18 27 18 19 27 22 13 21 16 21 24 16 4 13 17 21 26 30 25 24 31 22
3 1 3 3 2 10 16 14 13 8 10 5 1 5 11 11 14 17 20 21 24 15 18 20 20 21 17 14 11 12 13 17 14 3 4 9 20 22 24 25 28 29 35 37 31
6 7 2 10 6 10 12 9 5 10 7 8 7 11 14 17 16 15 11 18 17 15 16 20 24 27 22 15 15 10 15 19 15 16 2 2 4 22 33 30 34 27 26 33 39
10 9 8 16 3 3 1 2 5 6 5 6 5 10 10 14 18 16 14 9 11 10 21 15 20 11 17 21 16 19 19 19 14 14 20 20 8 20 29 26 25 21 21 24 29
6 8 6 6 5 5 14 17 13 12 12 7 9 8 9 13 16 15 16 16 10 17 11 17 10 6 19 21 10 17 15 15 19 22 17 7 12 17 17 18 16 16 14 17 22
10 8 6 8 2 6 8 6 5 8 7 8 13 12 12 13 12 17 17 18 9 18 14 8 9 11 11 11 15 11 7 17 19 20 13 8 19 18 12 13 6 9 10 9 12
11 2 6 5 1 6 5 6 4 3 6 1 5 8 12 15 15 16 16 17 15 16 16 12 9 13 17 14 14 11 9 19 9 17 7 14 7 12 12 15 8 7 4 7 13
12 11 10 12 0 7 4 4 7 8 7 10 11 13 14 14 14 17 15 16 19 22 7 12 14 12 23 16 11 9 14 9 5 3 8 10 16 16 10 9 9 10 6 8 10
8 9 12 10 4 6 8 3 3 5 8 10 13 14 14 12 13 14 15 19 16 12 11 16 16 17 15 7 7 3 16 18 7 13 15 10 10 7 9 10 12 12 12 15 9
Wind_Direction
286 284 284 284 284 282 274 273 267 255 271 265 130 136 144 160 172 176 180 189 169 155 138 131 135 127 126 85 66 87 86 118 132 127 126 144 139 127 134 174 118 104 155 146 140
303 295 290 287 285 279 270 264 261 236 202 207 147 145 144 150 180 167 200 181 177 152 141 139 99 92 230 188 89 54 78 115 137 130 141 144 150 125 132 148 161 178 158 157 151
314 306 301 294 288 277 265 250 244 230 177 164 152 148 139 122 128 125 208 190 181 158 147 135 65 276 116 134 156 59 139 111 112 134 155 132 123 139 157 171 196 203 165 162 165
323 312 310 302 296 279 255 240 225 220 174 156 151 144 130 82 78 33 26 168 167 159 153 154 169 158 110 117 77 113 121 123 127 133 131 128 142 156 189 170 146 149 158 157 159
328 320 319 314 307 281 249 226 210 204 174 158 158 144 124 96 43 19 29 160 163 151 186 200 204 120 148 50 120 116 116 122 129 117 114 132 146 150 147 167 175 155 147 120 104
321 322 326 322 321 289 243 212 197 190 174 162 165 165 128 121 58 22 103 143 150 131 98 61 113 52 143 163 167 146 134 142 137 118 153 135 116 146 151 177 192 145 133 122 134
316 320 325 327 339 301 233 195 188 176 170 165 168 165 119 148 86 107 124 134 151 140 339 36 353 10 113 137 274 132 127 125 126 154 148 162 138 155 165 191 157 136 152 178 195
318 319 316 336 350 39 186 171 175 169 165 166 170 178 240 307 185 147 133 134 162 211 136 90 298 350 218 255 31 222 159 142 145 154 152 143 154 167 179 175 154 136 138 178 201
314 320 317 347 3 75 125 141 150 159 163 165 173 183 230 269 234 178 166 109 70 74 166 129 202 236 13 297 315 356 149 156 160 204 188 187 162 167 176 173 156 153 164 189 203
313 315 304 348 45 94 118 116 100 124 172 174 177 172 306 275 234 189 169 125 282 344 22 172 168 232 197 68 132 195 205 215 184 181 189 168 166 173 177 165 173 174 193 207 217
318 309 296 215 117 124 132 125 108 40 183 162 119 63 18 75 293 214 179 167 208 257 263 245 208 228 227 124 278 150 103 206 186 185 166 154 158 183 183 184 187 197 189 207 233
312 314 290 226 166 158 165 177 144 208 217 187 210 157 103 197 204 227 226 218 224 230 247 246 253 276 189 120 230 205 177 111 274 215 195 155 166 187 195 202 200 205 209 208 221
313 292 272 230 195 177 198 242 166 212 269 216 203 188 185 224 229 252 211 227 228 249 269 265 277 139 208 208 237 228 228 194 168 172 202 174 178 196 195 202 212 214 220 209 242
314 306 252 222 204 179 201 147 134 226 295 258 201 187 207 236 264 200 232 226 240 250 259 279 273 267 253 260 266 257 286 199 191 173 163 175 192 198 186 191 201 212 209 218 234
310 301 280 216 189 191 198 182 152 29 306 173 191 32 211 208 57 199 194 233 242 246 260 278 262 320 222 263 287 291 351 183 201 199 206 190 161 189 198 202 195 198 220 227 236
302 282 259 225 200 215 237 167 153 67 247 173 163 193 198 214 233 293 204 214 244 258 262 266 263 278 268 242 274 309 308 284 267 272 199 221 201 206 227 193 191 199 207 221 231
308 288 253 233 231 236 179 162 113 236 160 198 208 201 206 223 242 213 221 214 243 253 262 263 259 268 269 271 252 277 274 283 279 239 243 246 174 200 201 184 192 205 199 206 220
303 279 256 234 222 204 177 156 217 217 258 264 168 193 214 222 239 231 228 224 244 249 264 279 267 250 237 247 255 236 245 251 263 310 316 140 157 192 181 182 194 198 205 212 205
313 290 232 222 217 203 178 185 209 197 322 314 109 233 265 268 236 231 235 232 251 250 232 269 280 266 289 246 228 244 249 260 271 284 290 121 118 132 151 162 184 197 185 177 197
338 242 243 81 217 192 193 207 231 258 317 294 223 275 304 287 289 246 248 241 242 240 250 256 265 278 284 201 210 236 251 283 296 288 262 162 175 152 151 169 175 184 180 188 203
111 96 89 356 315 204 208 232 261 314 247 251 261 281 288 298 305 301 282 261 244 238 250 257 267 266 262 283 224 240 252 262 281 280 301 347 78 158 183 180 174 177 187 191 202
114 64 308 328 264 82 216 228 306 259 1 323 296 252 279 287 297 306 300 292 355 281 252 239 255 228 272 270 263 252 253 254 252 267 284 278 96 189 192 188 183 199 216 226 220
124 109 317 336 180 291 272 262 253 275 280 291 283 278 280 289 299 293 295 283 302 319 281 228 233 252 272 274 299 219 238 230 264 268 275 262 139 187 172 209 202 202 212 214 221
137 64 233 7 311 340 325 317 287 271 290 284 271 268 276 278 272 285 294 286 281 313 273 245 193 195 266 298 306 302 262 254 267 283 291 317 164 201 208 233 221 218 201 209 229
157 141 214 183 16 264 289 248 279 279 287 312 273 280 285 283 279 279 275 278 263 299 263 255 248 234 261 292 313 339 289 277 310 276 309 142 167 195 223 272 304 292 184 230 235
221 224 217 207 21 335 261 320 282 273 314 303 313 293 280 282 277 277 279 265 283 277 269 245 258 253 261 300 285 340 28 271 222 96 88 105 150 196 220 280 279 248 255 283 276
285 284 245 184 120 307 295 282 259 289 302 283 285 296 286 267 299 256 275 263 278 297 231 240 256 276 228 278 217 56 31 19 64 69 70 75 135 211 282 279 236 241 301 285 325
Height
3162 3163 3163 3162 3163 3163 3163 3162 3162 3162 3163 3163 3164 3164 3165 3164 3166 3167 3168 3170 3171 3173 3174 3175 3177 3179 3178 3179 3178 3176 3178 3181 3182 3182 3184 3186 3185 3188 3188 3186 3191 3193 3195 3196 3200
3161 3162 3161 3161 3162 3161 3161 3160 3161 3162 3162 3163 3164 3164 3165 3165 3166 3167 3168 3168 3171 3174 3177 3180 3183 3183 3175 3178 3181 3178 3180 3182 3183 3183 3184 3185 3186 3188 3190 3190 3191 3193 3197 3198 3201
3161 3161 3161 3160 3160 3161 3160 3160 3160 3161 3162 3163 3164 3165 3165 3165 3166 3168 3166 3168 3171 3175 3177 3180 3183 3179 3181 3183 3182 3184 3183 3187 3187 3187 3187 3186 3188 3191 3190 3193 3193 3193 3195 3198 3201
3160 3160 3160 3159 3160 3160 3159 3159 3159 3160 3161 3163 3164 3165 3165 3165 3167 3166 3165 3167 3171 3174 3179 3180 3176 3180 3183 3186 3188 3188 3188 3189 3191 3190 3191 3191 3193 3194 3192 3193 3195 3197 3198 3200 3202
3160 3160 3159 3159 3159 3159 3159 3158 3159 3159 3161 3162 3163 3165 3165 3165 3166 3166 3167 3167 3171 3178 3177 3180 3174 3178 3181 3186 3187 3189 3191 3192 3191 3193 3196 3197 3196 3196 3194 3194 3197 3199 3200 3203 3205
3159 3159 3159 3159 3158 3158 3158 3158 3158 3159 3161 3162 3163 3164 3165 3166 3166 3169 3170 3170 3173 3178 3182 3175 3178 3179 3182 3186 3188 3187 3191 3191 3193 3197 3197 3199 3202 3200 3201 3198 3200 3201 3202 3205 3207
3159 3159 3159 3158 3158 3158 3158 3158 3158 3159 3160 3162 3163 3165 3166 3167 3167 3171 3173 3175 3177 3178 3179 3183 3184 3183 3184 3186 3185 3188 3190 3193 3195 3198 3199 3201 3204 3203 3202 3201 3202 3203 3206 3207 3209
3159 3158 3158 3158 3158 3158 3158 3158 3158 3159 3160 3162 3164 3166 3166 3165 3168 3172 3176 3178 3180 3180 3181 3187 3186 3187 3187 3188 3191 3191 3192 3193 3197 3198 3201 3202 3203 3202 3203 3202 3203 3205 3207 3209 3210
3158 3158 3158 3158 3158 3158 3158 3158 3159 3160 3160 3162 3164 3165 3166 3166 3167 3171 3175 3175 3178 3184 3185 3186 3189 3191 3192 3190 3191 3192 3191 3193 3195 3196 3197 3200 3202 3202 3203 3205 3206 3207 3210 3210 3212
3157 3157 3158 3158 3158 3158 3159 3159 3160 3161 3161 3162 3164 3169 3168 3166 3167 3169 3173 3175 3179 3183 3185 3188 3190 3190 3191 3191 3196 3187 3194 3190 3191 3195 3194 3197 3199 3203 3204 3205 3206 3208 3210 3211 3210
3156 3156 3157 3157 3158 3159 3160 3160 3163 3163 3161 3164 3165 3165 3166 3166 3167 3168 3170 3176 3181 3183 3183 3186 3187 3183 3187 3185 3185 3184 3189 3186 3193 3196 3199 3201 3204 3205 3205 3206 3205 3206 3207 3208 3210
3155 3155 3156 3156 3158 3159 3159 3160 3160 3162 3161 3160 3162 3163 3164 3170 3170 3170 3172 3175 3178 3179 3180 3184 3180 3182 3184 3183 3182 3182 3185 3185 3192 3198 3199 3198 3203 3203 3203 3205 3205 3205 3207 3207 3210
3154 3154 3155 3155 3157 3158 3159 3160 3159 3161 3160 3159 3160 3161 3165 3169 3169 3169 3172 3173 3175 3177 3177 3179 3181 3183 3182 3179 3179 3180 3180 3181 3181 3189 3195 3196 3196 3197 3200 3203 3207 3206 3208 3207 3208
3153 3153 3153 3154 3158 3157 3160 3159 3159 3160 3159 3157 3157 3160 3164 3166 3166 3166 3170 3173 3174 3174 3175 3177 3178 3183 3183 3183 3182 3181 3178 3185 3186 3185 3192 3194 3197 3194 3196 3199 3203 3203 3205 3206 3206
3152 3152 3152 3153 3154 3154 3155 3157 3159 3161 3160 3156 3157 3159 3161 3163 3164 3166 3168 3171 3172 3173 3177 3177 3176 3178 3180 3182 3181 3181 3180 3180 3180 3182 3185 3187 3187 3185 3187 3189 3194 3200 3201 3199 3199
3151 3151 3151 3152 3153 3154 3155 3157 3159 3163 3158 3157 3156 3158 3160 3162 3164 3165 3168 3171 3172 3172 3171 3172 3172 3176 3176 3178 3179 3179 3179 3180 3178 3177 3179 3172 3174 3177 3177 3180 3189 3194 3195 3197 3199
3149 3149 3149 3150 3151 3152 3155 3157 3161 3159 3157 3156 3155 3157 3159 3162 3163 3164 3167 3169 3170 3171 3170 3170 3170 3170 3172 3175 3177 3178 3179 3178 3177 3175 3168 3167 3176 3177 3176 3180 3186 3190 3196 3198 3200
3148 3147 3148 3148 3150 3151 3154 3157 3158 3154 3154 3157 3154 3156 3157 3158 3161 3163 3164 3165 3167 3169 3168 3168 3168 3168 3168 3167 3171 3173 3176 3176 3177 3176 3173 3169 3169 3171 3173 3179 3185 3191 3196 3199 3199
3145 3145 3146 3147 3148 3150 3153 3154 3154 3153 3155 3154 3153 3155 3156 3157 3158 3159 3160 3161 3163 3164 3165 3163 3161 3160 3162 3161 3165 3168 3169 3172 3169 3168 3169 3168 3170 3171 3175 3176 3183 3187 3190 3194 3192
3143 3143 3145 3145 3147 3149 3151 3151 3151 3151 3154 3153 3154 3154 3154 3155 3157 3156 3156 3158 3157 3160 3160 3161 3159 3158 3159 3155 3162 3164 3167 3168 3166 3166 3167 3164 3164 3166 3172 3171 3177 3179 3181 3186 3189
3143 3142 3145 3146 3147 3149 3149 3150 3152 3154 3152 3153 3153 3153 3153 3152 3152 3151 3152 3154 3155 3155 3156 3157 3157 3157 3157 3160 3159 3162 3162 3163 3164 3165 3165 3166 3168 3165 3168 3167 3167 3177 3183 3185 3187
3144 3143 3145 3146 3148 3148 3149 3150 3151 3152 3150 3151 3151 3152 3153 3152 3150 3149 3149 3151 3150 3149 3149 3151 3153 3152 3153 3154 3157 3155 3157 3159 3159 3159 3159 3160 3168 3168 3167 3170 3167 3177 3180 3182 3183
3144 3144 3146 3146 3146 3148 3150 3149 3150 3149 3149 3150 3151 3151 3151 3150 3150 3147 3146 3146 3149 3147 3146 3148 3148 3150 3154 3154 3154 3152 3154 3155 3156 3157 3157 3158 3164 3166 3176 3173 3172 3173 3177 3182 3184
3145 3146 3147 3147 3148 3147 3147 3147 3147 3148 3148 3148 3148 3148 3148 3148 3148 3147 3145 3144 3146 3146 3147 3146 3146 3148 3153 3155 3155 3152 3152 3153 3154 3154 3153 3153 3158 3166 3171 3176 3175 3177 3176 3179 3182
3142 3143 3143 3144 3145 3146 3145 3145 3146 3146 3148 3147 3147 3147 3148 3148 3147 3146 3146 3145 3144 3146 3145 3146 3146 3147 3149 3152 3152 3152 3151 3152 3151 3151 3151 3154 3158 3162 3164 3168 3170 3169 3171 3174 3178
3140 3140 3142 3143 3144 3145 3144 3146 3146 3147 3144 3145 3146 3146 3145 3145 3145 3145 3145 3144 3143 3142 3143 3144 3145 3147 3147 3149 3151 3152 3149 3150 3150 3150 3150 3153 3157 3160 3164 3166 3169 3169 3169 3170 3171
3140 3139 3140 3141 3143 3146 3146 3145 3145 3143 3145 3144 3142 3141 3141 3140 3140 3139 3141 3141 3141 3141 3140 3145 3145 3146 3147 3149 3149 3150 3153 3154 3151 3150 3151 3151 3160 3163 3165 3165 3165 3168 3169 3170 3171